Starlink 3702

operational
NORAD ID: 52100 Int'l Des: 2022-029 Owner: SPXS Country: US Constellation: starlink
LEOCIRCULAR

About Starlink 3702

Description loading...

Live Position

Loading 3D Globe...

Upcoming Passes

Altitude History

Altitude vs Time

uPlot chart will show altitude changes over time

Two-Line Element Set

1 52100U 22029N 25351.32583871 .00000396 00000-0 42985-4 0 9996
2 52100 53.2192 98.8663 0001288 105.2168 254.8967 15.08835950208223
Epoch: Dec 17, 2025 • Age: 5 hours

Current Status

Altitude 542.8 km
Velocity 7.60 km/s
Sub-Earth Point 41.27°N, 46.37°W
Launch Date Mar 19, 2022
Age 3.7 years
Type internet

Technical Details

Classification Payload
Mass 297.00 kg
Dry Mass 275.00 kg
Total Mass 297.00 kg
Length 0.20 m
Diameter 2.80 m
Span 9.00 m
Shape Box + pan
Manufacturer SPXS
Bus Type Starlink
Phase Status In Orbit
Owner/State SPXS/US

Large Constellations

Loading constellations...